Flag for Peru Weather past 2 weeks in Iquitos, Loreto, Peru

Now
86 °F

Scattered clouds.


Feels Like: 93 °F
Forecast: N/A
Wind: 5 mph from North

Location: Iquitos Airport

Current Time: Dec 17, 2014 at 4:43:48 PM

Latest Report: Dec 17, 2014 at 4:00 PM


Visibility: N/A

Pressure: 29.74 "Hg

Humidity: 66%

Dew point: 73 °F

Location of IquitosLocation

Historic Weather in Iquitos — Graph

°F

Iquitos temperature yesterday

Maximum temperature yesterday: 88 °F (at 1:00 PM)
Minimum temperature yesterday: 73 °F (at 12:00 AM)
Average temperature yesterday: 78 °F

Past Weeks' High & Low Weather Summary

 TemperatureHumidityPressure
High93 °F (Dec 7, 1:00 PM)94% (Dec 2, 10:00 PM)29.95 "Hg (Dec 2, 10:00 PM)
Low73 °F (Dec 4, 3:00 AM)52% (Dec 12, 3:00 PM)29.62 "Hg (Dec 3, 4:00 PM)
Average80 °F84%29.80 "Hg
* Reported Dec 2 3:00 PM — Dec 17 3:00 PM, Iquitos, Weather by CustomWeather, © 2014

Note: Actual official high and low records may vary slightly from our data, if they occured in-between our weather recording intervals... More about our weather records

Advertising

Iquitos weather history for previous 24 hours

 ConditionsComfort  
Time TempWeatherWind HumidityBarometerVisibility
3:00 PM
Dec 17
88 °FScattered clouds.3 mph59%29.77 "HgN/A
2:00 PM86 °FPartly sunny.3 mph70%29.83 "HgN/A
1:00 PM81 °FBroken clouds.5 mph84%29.89 "HgN/A
12:00 PM81 °FBroken clouds.6 mph79%29.89 "HgN/A
11:00 AM81 °FBroken clouds.3 mph79%29.92 "HgN/A
10:00 AM79 °FPartly sunny.3 mph84%29.95 "HgN/A
9:00 AM79 °FPartly sunny.5 mph84%29.95 "HgN/A
8:00 AM77 °FBroken clouds.2 mph89%29.92 "HgN/A
7:00 AM75 °FMore clouds than sun.6 mph94%29.92 "HgN/A
6:00 AM75 °FMore clouds than sun.5 mph94%29.89 "Hg5 mi
5:00 AM75 °FMostly cloudy.No wind94%29.86 "Hg4 mi
4:00 AM75 °FMostly cloudy.No wind94%29.86 "Hg4 mi
3:00 AM75 °FMostly cloudy.No wind94%29.86 "Hg4 mi
2:00 AM75 °FScattered showers. Passing clouds.No wind94%29.86 "Hg5 mi
1:00 AM75 °FPassing clouds.No wind94%29.89 "HgN/A
12:00 AM75 °FPassing clouds.No wind94%29.89 "HgN/A
11:00 PM
Dec 16
77 °FPassing clouds.No wind94%29.92 "HgN/A
10:00 PM77 °FPartly cloudy.No wind94%29.92 "HgN/A
9:00 PM77 °FPartly cloudy.3 mph94%N/AN/A
8:00 PM77 °FPartly cloudy.5 mph94%29.86 "HgN/A
7:00 PM77 °FMostly cloudy.No wind94%29.83 "HgN/A
6:00 PM77 °FThunderstorms. Mostly cloudy.3 mph94%29.83 "Hg5 mi
5:00 PM82 °FScattered showers. Broken clouds.15 mph79%29.80 "HgN/A
4:00 PM88 °FScattered showers. Passing clouds.2 mph70%29.77 "HgN/A
Weather by CustomWeather, © 2014

See weather overviewHow to use our weather pages